TimeCDT,TemperatureF,Dew PointF,Humidity,Sea Level PressureIn,VisibilityMPH,Wind Direction,Wind SpeedMPH,Gust SpeedMPH,PrecipitationIn,Events,Conditions,WindDirDegrees,DateUTC
12:53 AM,53.1,52.0,96,30.00,10.0,Calm,Calm,-,N/A,,Clear,0,2013-10-03 05:53:00
1:10 AM,55.4,53.6,94,30.00,10.0,Calm,Calm,-,N/A,,Mostly Cloudy,0,2013-10-03 06:10:00
1:53 AM,59.0,55.9,90,29.98,10.0,Calm,Calm,-,N/A,,Overcast,0,2013-10-03 06:53:00
2:53 AM,62.1,59.0,90,29.97,10.0,Calm,Calm,-,N/A,,Overcast,0,2013-10-03 07:53:00
3:30 AM,62.6,59.0,88,29.97,10.0,Calm,Calm,-,N/A,,Overcast,0,2013-10-03 08:30:00
3:53 AM,64.9,60.1,84,29.96,10.0,South,3.5,-,N/A,,Overcast,170,2013-10-03 08:53:00
4:53 AM,64.0,61.0,90,29.95,6.0,South,3.5,-,N/A,,Overcast,170,2013-10-03 09:53:00
5:53 AM,64.9,62.1,90,29.94,3.0,South,5.8,-,N/A,,Overcast,170,2013-10-03 10:53:00
5:58 AM,64.4,62.6,94,29.95,2.5,South,4.6,-,N/A,,Overcast,170,2013-10-03 10:58:00
6:15 AM,64.4,62.6,94,29.95,1.2,South,5.8,-,N/A,,Overcast,170,2013-10-03 11:15:00
6:26 AM,64.4,62.6,94,29.94,0.2,South,4.6,-,N/A,Fog,Fog,170,2013-10-03 11:26:00
6:35 AM,64.4,62.6,94,29.95,0.2,South,5.8,-,N/A,Fog,Fog,190,2013-10-03 11:35:00
6:53 AM,64.0,63.0,96,29.94,0.1,South,6.9,-,N/A,Fog,Fog,170,2013-10-03 11:53:00
7:53 AM,64.0,64.0,100,29.96,0.2,South,6.9,-,0.01,Fog,Fog,180,2013-10-03 12:53:00
8:53 AM,64.9,64.0,97,29.95,0.2,South,4.6,-,N/A,Fog,Fog,180,2013-10-03 13:53:00
9:12 AM,66.2,64.4,94,29.95,0.8,SW,6.9,-,N/A,,Overcast,220,2013-10-03 14:12:00
9:53 AM,66.9,66.0,97,29.94,1.5,SSW,4.6,-,N/A,,Overcast,200,2013-10-03 14:53:00
10:53 AM,69.1,66.0,90,29.95,1.5,SSW,9.2,-,N/A,,Overcast,210,2013-10-03 15:53:00
11:00 AM,69.8,66.2,88,29.96,2.0,SSW,8.1,-,N/A,,Overcast,210,2013-10-03 16:00:00
11:53 AM,71.1,66.9,87,29.94,5.0,SSW,4.6,-,N/A,,Mostly Cloudy,200,2013-10-03 16:53:00
12:30 PM,71.6,66.2,83,29.95,7.0,WSW,10.4,-,0.00,Rain,Light Rain,250,2013-10-03 17:30:00
12:53 PM,72.0,66.9,84,29.94,10.0,West,8.1,-,0.00,,Mostly Cloudy,260,2013-10-03 17:53:00
1:01 PM,71.6,66.2,83,29.93,10.0,SW,9.2,-,N/A,,Mostly Cloudy,230,2013-10-03 18:01:00
1:53 PM,75.0,64.9,71,29.90,10.0,SW,9.2,-,N/A,,Mostly Cloudy,230,2013-10-03 18:53:00
2:00 PM,73.4,64.4,73,29.91,10.0,SW,6.9,-,N/A,,Mostly Cloudy,230,2013-10-03 19:00:00
2:53 PM,75.9,64.0,67,29.87,10.0,South,10.4,-,N/A,,Mostly Cloudy,170,2013-10-03 19:53:00
3:00 PM,77.0,64.4,65,29.88,10.0,South,15.0,-,N/A,,Mostly Cloudy,190,2013-10-03 20:00:00
3:08 PM,75.2,64.4,69,29.88,10.0,South,13.8,-,N/A,,Scattered Clouds,180,2013-10-03 20:08:00
3:19 PM,73.4,64.4,73,29.88,10.0,South,9.2,-,N/A,,Mostly Cloudy,190,2013-10-03 20:19:00
3:42 PM,75.2,64.4,69,29.87,10.0,South,12.7,-,N/A,,Scattered Clouds,190,2013-10-03 20:42:00
3:49 PM,75.2,64.4,69,29.87,10.0,South,10.4,-,N/A,,Mostly Cloudy,190,2013-10-03 20:49:00
3:53 PM,75.9,64.9,69,29.86,10.0,SSW,9.2,-,N/A,,Mostly Cloudy,200,2013-10-03 20:53:00
4:53 PM,73.9,66.0,76,29.86,10.0,SE,6.9,-,N/A,,Mostly Cloudy,130,2013-10-03 21:53:00
5:00 PM,73.4,66.2,78,29.86,10.0,SE,8.1,-,N/A,,Scattered Clouds,130,2013-10-03 22:00:00
5:53 PM,73.0,66.9,81,29.85,10.0,South,4.6,-,N/A,,Clear,180,2013-10-03 22:53:00
6:53 PM,70.0,64.9,84,29.86,10.0,ESE,3.5,-,N/A,,Clear,110,2013-10-03 23:53:00
7:53 PM,70.0,66.0,87,29.87,8.0,ESE,4.6,-,N/A,,Clear,120,2013-10-04 00:53:00
8:53 PM,71.1,66.0,84,29.87,6.0,SSE,5.8,-,N/A,,Haze,150,2013-10-04 01:53:00
9:53 PM,71.1,64.9,81,29.87,10.0,South,11.5,-,N/A,,Clear,190,2013-10-04 02:53:00
11:53 PM,70.0,64.0,81,29.89,10.0,SW,11.5,19.6,N/A,,Mostly Cloudy,220,2013-10-04 04:53:00